Location: Newark
(42.8481°N, 0.4872°E)
Time: 07:59:15
(UTC+00:00)

Vanguard 3 - Pass Details

Date: 27 October 2020
Orbit: 508 x 3262 km, 33.3° (Epoch: 28 November)

Event Time Altitude Azimuth Distance (km) Brightness Sun altitude
Rises 08:09:40 0° 260° (W) 6,982 11.5 16.1°
Reaches altitude 10° 08:14:13 10° 257° (WSW) 6,107 11.3 16.7°
Maximum altitude 08:33:44 62° 184° (S) 3,332 10.8 19.5°
Drops below altitude 10° 08:49:06 10° 108° (ESE) 4,951 12.5 21.6°
Sets 08:52:20 0° 105° (ESE) 5,651 12.4 22.0°
